GW4368 Weather Reports


time (UTC)temp
C
wind
direction
speed
KPH
gust
KPH
rain 1hr
cm
rain 24hr
cm
rain mn
cm
humidity
%
barometer
mb
20260506051000 17 331 3.2 3.2 0.00 0.00 0.00 78 1003.2
20260506050458 17 331 8.0 9.7 0.00 0.00 0.00 77 1003.1
20260506044948 17 330 4.8 4.8 0.00 0.00 0.00 76 1002.9
20260506044446 17 330 4.8 4.8 0.00 0.00 0.00 75 1003.0
20260506043943 17 330 11.3 12.9 0.00 0.00 0.00 75 1003.3
20260506043440 17 331 9.7 11.3 0.00 0.00 0.00 74 1003.2
20260506042938 17 331 8.0 9.7 0.00 0.00 0.00 74 1003.4
20260506042437 17 331 8.0 9.7 0.00 0.00 0.00 73 1003.4
20260506041935 17 331 4.8 4.8 0.00 0.00 0.00 73 1003.5
20260506041432 18 331 11.3 12.9 0.00 0.00 0.00 72 1003.3
20260506040929 18 331 8.0 9.7 0.00 0.00 0.00 72 1003.2
20260506040427 18 331 4.8 9.7 0.00 0.00 0.00 72 1003.1
20260506035923 18 331 14.5 14.5 0.00 0.00 0.00 71 1003.2
20260506035421 18 331 6.4 11.3 0.00 0.00 0.00 71 1003.3
20260506034917 18 331 6.4 8.0 0.00 0.00 0.00 70 1003.3
20260506034414 18 331 4.8 9.7 0.00 0.00 0.00 69 1003.3
20260506033911 18 331 3.2 3.2 0.00 0.00 0.00 69 1003.2
20260506033409 18 331 17.7 20.9 0.00 0.00 0.00 68 1003.4
20260506032905 18 331 11.3 12.9 0.00 0.00 0.00 68 1003.2
20260506032402 18 331 6.4 9.7 0.00 0.00 0.00 67 1003.2
20260506031859 19 331 11.3 11.3 0.00 0.00 0.00 66 1003.2
20260506031356 19 331 8.0 9.7 0.00 0.00 0.00 66 1003.2
20260506030854 19 331 6.4 9.7 0.00 0.00 0.00 66 1003.0
20260506030352 19 331 8.0 9.7 0.00 0.00 0.00 66 1003.0
20260506025848 19 331 8.0 9.7 0.00 0.00 0.00 65 1003.1
20260506025344 19 331 6.4 9.7 0.00 0.00 0.00 64 1002.9
20260506024842 20 331 12.9 16.1 0.00 0.00 0.00 63 1002.8
20260506024339 20 331 11.3 12.9 0.00 0.00 0.00 63 1002.6
20260506023835 20 331 8.0 9.7 0.00 0.00 0.00 63 1003.0
20260506023331 20 331 8.0 11.3 0.00 0.00 0.00 63 1003.1
20260506022828 20 331 11.3 16.1 0.00 0.00 0.00 64 1002.8
20260506022326 20 331 8.0 9.7 0.00 0.00 0.00 64 1002.6
20260506021824 20 331 8.0 9.7 0.00 0.00 0.00 64 1003.0
20260506021321 20 331 11.3 14.5 0.00 0.00 0.00 62 1003.1
20260506020817 20 331 9.7 11.3 0.00 0.00 0.00 63 1003.0
20260506020315 21 331 4.8 8.0 0.00 0.00 0.00 63 1003.1
20260506015813 21 331 9.7 11.3 0.00 0.00 0.00 63 1003.1
20260506015310 21 331 22.5 27.4 0.00 0.00 0.00 62 1003.0
20260506014806 21 331 11.3 17.7 0.00 0.00 0.00 63 1002.8
20260506014304 21 331 9.7 12.9 0.00 0.00 0.00 63 1002.9
20260506013800 21 331 4.8 8.0 0.00 0.00 0.00 63 1002.9
20260506013257 21 331 8.0 11.3 0.00 0.00 0.00 62 1002.4
20260506012754 21 331 3.2 4.8 0.00 0.00 0.00 61 1002.5
20260506012251 21 331 4.8 8.0 0.00 0.00 0.00 60 1002.4
20260506011748 21 331 6.4 9.7 0.00 0.00 0.00 59 1002.2
20260506011244 21 331 6.4 8.0 0.00 0.00 0.00 57 1002.3
20260506010743 21 331 3.2 4.8 0.00 0.00 0.00 56 1002.1
20260506010240 21 331 3.2 3.2 0.00 0.00 0.00 56 1002.3
20260506005737 20 331 6.4 8.0 0.00 0.00 0.00 57 1002.1
20260506005234 20 331 0.0 0.0 0.00 0.00 0.00 59 1001.9
20260506004729 20 331 0.0 0.0 0.00 0.00 0.00 58 1001.7
20260506004227 20 330 0.0 0.0 0.00 0.00 0.00 59 1001.7
20260506003723 21 331 0.0 0.0 0.00 0.00 0.00 56 1001.6
20260506003220 21 331 0.0 0.0 0.00 0.00 0.00 52 1001.4
20260506002716 22 331 0.0 0.0 0.00 0.00 0.00 52 1001.2
20260506002212 22 331 0.0 0.0 0.00 0.00 0.00 50 1001.1
20260506001708 22 331 1.6 1.6 0.00 0.00 0.00 49 1001.2
20260506001206 22 331 3.2 3.2 0.00 0.00 0.00 48 1001.3
20260506000702 23 331 3.2 3.2 0.00 0.00 0.00 46 1001.4
20260506000200 23 331 1.6 1.6 0.00 0.00 0.00 46 1001.4
20260505235657 23 331 3.2 3.2 0.00 0.00 0.00 45 1001.1
20260505235155 23 331 3.2 3.2 0.00 0.00 0.00 45 1001.2
20260505234652 24 331 3.2 3.2 0.00 0.00 0.00 43 1001.2
20260505234149 25 331 3.2 4.8 0.00 0.00 0.00 42 1001.4
20260505233645 25 331 4.8 8.0 0.00 0.00 0.00 42 1001.4
20260505233143 25 331 6.4 8.0 0.00 0.00 0.00 41 1001.0
20260505232640 25 331 3.2 3.2 0.00 0.00 0.00 41 1001.1
20260505232138 25 331 6.4 9.7 0.00 0.00 0.00 41 1001.2
20260505231634 25 331 4.8 4.8 0.00 0.00 0.00 41 1001.5
20260505231133 25 331 16.1 17.7 0.00 0.00 0.00 40 1001.6
20260505230631 25 331 1.6 3.2 0.00 0.00 0.00 41 1001.6
20260505230127 26 331 4.8 4.8 0.00 0.00 0.00 40 1001.4
20260505225623 25 331 1.6 1.6 0.00 0.00 0.00 40 1001.5
20260505225120 26 331 3.2 8.0 0.00 0.00 0.00 40 1001.3
20260505224617 26 331 8.0 9.7 0.00 0.00 0.00 38 1001.6
20260505224114 26 331 14.5 16.1 0.00 0.00 0.00 38 1001.7
20260505223611 26 331 14.5 20.9 0.00 0.00 0.00 39 1001.3
20260505223107 26 331 6.4 8.0 0.00 0.00 0.00 39 1001.5
20260505222604 26 331 8.0 9.7 0.00 0.00 0.00 38 1001.5
20260505222100 26 331 6.4 8.0 0.00 0.00 0.00 37 1001.5
20260505221557 26 331 4.8 8.0 0.00 0.00 0.00 39 1001.5
20260505221053 26 331 9.7 11.3 0.00 0.00 0.00 39 1001.5
20260505220551 27 331 9.7 12.9 0.00 0.00 0.00 38 1001.4
20260505220048 27 331 4.8 8.0 0.00 0.00 0.00 36 1001.4
20260505215546 27 331 6.4 9.7 0.00 0.00 0.00 37 1001.5
20260505215044 26 331 9.7 11.3 0.00 0.00 0.00 38 1001.4
20260505214542 27 331 8.0 12.9 0.00 0.00 0.00 38 1001.2
20260505214038 27 332 9.7 11.3 0.00 0.00 0.00 39 1001.3
20260505213536 27 331 11.3 16.1 0.00 0.00 0.00 38 1001.5
20260505213032 27 331 11.3 14.5 0.00 0.00 0.00 38 1001.5
20260505212529 27 331 6.4 8.0 0.00 0.00 0.00 39 1001.4
20260505212026 27 331 4.8 4.8 0.00 0.00 0.00 39 1001.6
20260505211523 26 331 6.4 8.0 0.00 0.00 0.00 38 1001.7
20260505211020 26 331 11.3 12.9 0.00 0.00 0.00 39 1001.7
20260505210516 26 331 8.0 9.7 0.00 0.00 0.00 39 1001.5
20260505210014 26 331 0.0 0.0 0.00 0.00 0.00 39 1001.7
20260505205512 26 331 8.0 9.7 0.00 0.00 0.00 38 1002.0
20260505205009 26 331 8.0 9.7 0.00 0.00 0.00 38 1002.0
20260505204506 27 331 12.9 16.1 0.00 0.00 0.00 37 1002.0
20260505204003 27 331 14.5 20.9 0.00 0.00 0.00 36 1002.0
20260505203500 27 331 12.9 14.5 0.00 0.00 0.00 37 1001.8
20260505202956 28 332 12.9 16.1 0.00 0.00 0.00 36 1001.9
20260505202453 29 331 14.5 17.7 0.00 0.00 0.00 33 1002.2
20260505201949 27 331 11.3 14.5 0.00 0.00 0.00 35 1002.1
20260505201446 27 331 8.0 11.3 0.00 0.00 0.00 37 1002.3
20260505200944 27 331 9.7 12.9 0.00 0.00 0.00 38 1002.4
20260505200441 27 331 6.4 9.7 0.00 0.00 0.00 37 1002.3
20260505195937 27 331 6.4 9.7 0.00 0.00 0.00 36 1002.3
20260505195434 27 331 11.3 14.5 0.00 0.00 0.00 36 1002.4
20260505194931 26 331 8.0 11.3 0.00 0.00 0.00 37 1002.4
20260505194429 26 331 3.2 3.2 0.00 0.00 0.00 39 1002.5
20260505193928 26 331 4.8 8.0 0.00 0.00 0.00 38 1002.6
20260505193426 27 331 3.2 8.0 0.00 0.00 0.00 36 1002.6
20260505192924 27 331 3.2 3.2 0.00 0.00 0.00 37 1002.9
20260505192422 28 331 8.0 14.5 0.00 0.00 0.00 33 1002.9
20260505191919 27 331 11.3 12.9 0.00 0.00 0.00 37 1003.1
20260505191418 27 331 11.3 14.5 0.00 0.00 0.00 36 1003.0
20260505190914 28 332 9.7 12.9 0.00 0.00 0.00 34 1003.0
20260505190410 27 331 4.8 11.3 0.00 0.00 0.00 36 1003.0
20260505185905 26 331 12.9 14.5 0.00 0.00 0.00 36 1003.3
20260505185403 26 331 9.7 14.5 0.00 0.00 0.00 36 1003.3
20260505184858 26 331 12.9 14.5 0.00 0.00 0.00 37 1003.6
20260505184356 27 331 4.8 8.0 0.00 0.00 0.00 36 1003.6
20260505183853 26 331 9.7 16.1 0.00 0.00 0.00 36 1003.8
20260505183349 26 331 14.5 17.7 0.00 0.00 0.00 37 1003.9
20260505182846 28 331 17.7 20.9 0.00 0.00 0.00 36 1003.9
20260505182343 27 331 8.0 11.3 0.00 0.00 0.00 38 1004.0
20260505181840 28 331 4.8 9.7 0.00 0.00 0.00 37 1004.2
20260505181337 26 331 6.4 9.7 0.00 0.00 0.00 39 1004.1
20260505180833 27 331 8.0 9.7 0.00 0.00 0.00 39 1004.1
20260505180330 28 331 1.6 1.6 0.00 0.00 0.00 38 1003.9
20260505175826 27 331 11.3 14.5 0.00 0.00 0.00 37 1004.1
20260505175323 27 331 14.5 14.5 0.00 0.00 0.00 37 1004.1
20260505174819 26 331 4.8 4.8 0.00 0.00 0.00 40 1003.8
20260505174317 27 331 9.7 12.9 0.00 0.00 0.00 37 1003.9
20260505173813 26 331 3.2 3.2 0.00 0.00 0.00 38 1003.8
20260505173309 26 331 12.9 16.1 0.00 0.00 0.00 35 1003.6
20260505172807 26 331 16.1 20.9 0.00 0.00 0.00 39 1003.9
20260505172306 27 331 19.3 22.5 0.00 0.00 0.00 37 1004.0
20260505171758 26 331 9.7 12.9 0.00 0.00 0.00 39 1004.2
20260505171255 26 331 12.9 16.1 0.00 0.00 0.00 37 1004.0
20260505170752 26 331 20.9 24.1 0.00 0.00 0.00 36 1004.1
20260505170249 26 331 6.4 11.3 0.00 0.00 0.00 40 1004.4
20260505165744 26 331 12.9 14.5 0.00 0.00 0.00 39 1004.2
20260505165240 26 331 4.8 4.8 0.00 0.00 0.00 42 1004.5
20260505164736 26 331 1.6 3.2 0.00 0.00 0.00 42 1004.6
20260505164233 25 331 12.9 16.1 0.00 0.00 0.00 44 1004.6
20260505163732 25 331 11.3 12.9 0.00 0.00 0.00 40 1004.7
20260505163230 27 331 3.2 8.0 0.00 0.00 0.00 40 1004.9
20260505162727 25 331 9.7 11.3 0.00 0.00 0.00 44 1004.7
20260505162224 26 331 8.0 14.5 0.00 0.00 0.00 38 1004.7
20260505161720 25 331 1.6 3.2 0.00 0.00 0.00 41 1004.8
20260505161218 25 331 6.4 11.3 0.00 0.00 0.00 42 1004.9
20260505160715 26 331 6.4 8.0 0.00 0.00 0.00 45 1004.9
20260505160213 27 331 8.0 11.3 0.00 0.00 0.00 44 1004.8
20260505153152 25 330 6.4 9.7 0.00 0.00 0.00 52 1005.1
20260505152649 25 330 4.8 8.0 0.00 0.00 0.00 51 1005.4
20260505152145 24 330 8.0 12.9 0.00 0.00 0.00 54 1005.1
20260505151640 25 330 6.4 11.3 0.00 0.00 0.00 53 1005.2
20260505151138 25 330 1.6 3.2 0.00 0.00 0.00 55 1005.2
20260505150634 25 330 4.8 4.8 0.00 0.00 0.00 56 1005.3
20260505150131 23 330 4.8 8.0 0.00 0.00 0.00 57 1005.4
20260505140559 21 330 9.7 11.3 0.00 0.00 0.00 66 1005.4
20260505125013 18 330 6.4 8.0 0.00 0.00 0.00 75 1005.2
20260505124510 17 329 6.4 8.0 0.00 0.00 0.00 76 1005.0
20260505124006 17 330 3.2 4.8 0.00 0.00 0.00 78 1005.0
20260505123503 17 330 3.2 3.2 0.00 0.00 0.00 79 1005.0
20260505122958 16 330 3.2 4.8 0.00 0.00 0.00 79 1004.8
20260505122456 16 330 9.7 12.9 0.00 0.00 0.00 79 1004.8
20260505121953 16 330 11.3 12.9 0.00 0.00 0.00 80 1004.8
20260505121449 16 330 4.8 8.0 0.00 0.00 0.00 81 1004.6
20260505120945 16 330 4.8 4.8 0.00 0.00 0.00 82 1004.7
20260505120442 15 330 3.2 4.8 0.00 0.00 0.00 83 1004.7
20260505115941 15 330 3.2 3.2 0.00 0.00 0.00 83 1004.7
20260505115438 15 330 4.8 8.0 0.00 0.00 0.00 84 1004.9
20260505114936 14 330 3.2 3.2 0.00 0.00 0.00 85 1004.8
20260505114432 14 330 6.4 8.0 0.00 0.00 0.00 85 1004.6
20260505113928 13 330 1.6 3.2 0.00 0.00 0.00 86 1004.7
20260505113425 13 329 1.6 3.2 0.00 0.00 0.00 87 1004.6
20260505112921 13 330 0.0 0.0 0.00 0.00 0.00 88 1004.6
20260505112419 12 330 0.0 0.0 0.00 0.00 0.00 90 1004.8
20260505111914 12 330 0.0 0.0 0.00 0.00 0.00 91 1004.5
20260505111409 12 330 1.6 1.6 0.00 0.00 0.00 92 1004.6
20260505110906 12 330 1.6 1.6 0.00 0.00 0.00 91 1004.3
20260505110403 12 330 0.0 0.0 0.00 0.00 0.00 92 1004.3
20260505101833 12 330 0.0 0.0 0.00 0.00 0.00 89 1004.1
20260505101328 12 330 1.6 1.6 0.00 0.00 0.00 90 1003.9
20260505100824 12 330 1.6 3.2 0.00 0.00 0.00 90 1004.0
20260505100321 12 330 0.0 0.0 0.00 0.00 0.00 90 1003.7
20260505095817 11 330 0.0 0.0 0.00 0.00 0.00 90 1004.0
20260505095315 12 330 1.6 1.6 0.00 0.00 0.00 90 1003.8
20260505094810 12 330 1.6 3.2 0.00 0.00 0.00 90 1003.8
20260505094308 12 330 1.6 3.2 0.00 0.00 0.00 90 1003.8
20260505093803 11 330 1.6 3.2 0.00 0.00 0.00 90 1003.8
20260505093301 12 330 1.6 1.6 0.00 0.00 0.00 89 1003.6
20260505092757 12 330 1.6 3.2 0.00 0.00 0.00 89 1003.7
20260505092256 11 330 1.6 3.2 0.00 0.00 0.00 89 1003.9
20260505091753 12 330 0.0 0.0 0.00 0.00 0.00 88 1003.8
20260505091250 12 330 1.6 1.6 0.00 0.00 0.00 87 1003.6
20260505090748 12 330 1.6 1.6 0.00 0.00 0.00 87 1003.7
20260505090246 12 330 1.6 3.2 0.00 0.00 0.00 86 1003.7
20260505085743 12 330 3.2 3.2 0.00 0.00 0.00 86 1003.6
20260505085242 12 330 1.6 1.6 0.00 0.00 0.00 86 1003.7
20260505084738 12 330 1.6 1.6 0.00 0.00 0.00 86 1003.8
20260505084238 12 330 3.2 3.2 0.00 0.00 0.00 85 1003.5
20260505083734 12 330 3.2 3.2 0.00 0.00 0.00 86 1003.5
20260505083231 12 330 3.2 3.2 0.00 0.00 0.00 85 1003.7
20260505082727 12 330 3.2 3.2 0.00 0.00 0.00 85 1003.5
20260505082224 12 330 3.2 3.2 0.00 0.00 0.00 85 1003.6
20260505081720 12 330 1.6 1.6 0.00 0.00 0.00 84 1003.6
20260505081217 12 330 3.2 3.2 0.00 0.00 0.00 84 1003.6
20260505080714 12 330 1.6 3.2 0.00 0.00 0.00 84 1003.4
20260505080210 12 330 3.2 3.2 0.00 0.00 0.00 84 1003.5
20260505075706 12 330 3.2 3.2 0.00 0.00 0.00 84 1003.3
20260505075203 12 330 1.6 1.6 0.00 0.00 0.00 83 1003.7
20260505074700 12 330 1.6 3.2 0.00 0.00 0.00 82 1003.4
20260505074157 13 330 3.2 3.2 0.00 0.00 0.00 83 1003.2
20260505073654 12 330 1.6 1.6 0.00 0.00 0.00 83 1003.4
20260505073153 12 330 1.6 1.6 0.00 0.00 0.00 83 1003.4
20260505072648 13 330 1.6 3.2 0.00 0.00 0.00 82 1003.2
20260505072145 13 330 1.6 1.6 0.00 0.00 0.00 81 1003.3
20260505071640 13 330 1.6 3.2 0.00 0.00 0.00 82 1003.5
20260505071138 13 330 1.6 1.6 0.00 0.00 0.00 81 1003.4
20260505070635 13 330 1.6 1.6 0.00 0.00 0.00 81 1003.3
20260505070132 13 330 1.6 3.2 0.00 0.00 0.00 80 1003.4
20260505065628 13 330 4.8 4.8 0.00 0.00 0.00 79 1003.3
20260505065124 13 330 4.8 4.8 0.00 0.00 0.00 79 1003.5
20260505064621 13 330 1.6 3.2 0.00 0.00 0.00 79 1003.4
20260505064120 13 330 4.8 4.8 0.00 0.00 0.00 79 1003.2
20260505063617 13 330 4.8 4.8 0.00 0.00 0.00 78 1003.5
20260505063113 13 330 3.2 4.8 0.00 0.00 0.00 77 1003.6
20260505062609 14 330 3.2 3.2 0.00 0.00 0.00 77 1003.3
20260505062107 14 330 3.2 3.2 0.00 0.00 0.00 76 1003.4
20260505061604 14 331 3.2 4.8 0.00 0.00 0.00 75 1003.4
20260505061102 14 330 6.4 9.7 0.00 0.00 0.00 75 1003.5
20260505060559 15 330 6.4 8.0 0.00 0.00 0.00 75 1003.7
20260505060056 15 330 4.8 4.8 0.00 0.00 0.00 75 1003.6